Location: Olda
(45.8833°N, 9.5500°E)
Time: 20:47:29
(UTC+00:00)

Cosmos 2219 Rocket - Pass Details

Date: 03 March 2021
Orbit: 826 x 848 km, 71.0° (Epoch: 13 April)

Event Time Altitude Azimuth Distance (km) Brightness Sun altitude
Rises 19:23:34 0° 200° (SSW) 3,352 5.4 -23.6°
Reaches altitude 10° 19:25:59 10° 199° (SSW) 2,424 4.6 -24.0°
Maximum altitude 19:31:32 79° 114° (ESE) 849 2.0 -24.9°
Drops below altitude 10° 19:37:09 10° 28° (NNE) 2,451 4.5 -25.9°
Sets 19:39:37 0° 28° (NNE) 3,393 5.3 -26.3°
